Regional Weather Roundup
Issued by NWS

Home | Current Version | Previous Version | Graphics & Text | Print | Product List | Glossary On
Versions: 1 2 3 4 5 6 7 8 9 10 11 12 13 14 15 16 17 18 19 20 21 22 23 24 25 26 27 28 29 30 31 32 33 34 35 36 37 38 39 40 41 42 43 44 45 46 47 48 49 50
000
ASUS43 KMKX 300821
RWRWI

WISCONSIN REGIONAL WEATHER ROUNDUP
NATIONAL WEATHER SERVICE MILWAUKEE/SULLIVAN WI
300 AM CDT SAT APR 30 2016

NOTE: "FAIR" INDICATES FEW OR NO CLOUDS BELOW 12,000 FEET WITH NO
SIGNIFICANT WEATHER AND/OR OBSTRUCTIONS TO VISIBILITY.

WIZ001-002-006>008-014>016-023>028-300900-
NORTHWEST WISCONSIN

CITY           SKY/WX    TMP DP  RH WIND       PRES   REMARKS
SUPERIOR ARPT  CLEAR     34  33  96 CALM      30.24R
ASHLAND        PTCLDY    30  29  96 NE7       30.24S WCI  23
HAYWARD        PTCLDY    34  29  82 N6        30.18F WCI  29
SIREN          CLOUDY    37  29  75 NE6       30.17F WCI  32
CUMBERLAND     CLOUDY    37  30  75 NE8       30.13F WCI  31
RICE LAKE      CLOUDY    39  32  75 N5        30.15F
CHETEK         CLOUDY    42  32  68 NE5       30.13F
LADYSMITH      CLOUDY    38  31  76 NE5       30.16F WCI  35
EAU CLAIRE     CLOUDY    38  32  79 NE6       30.10F WCI  33
MENOMONIE      CLOUDY    42  33  72 N3        30.11F
NEW RICHMOND   CLOUDY    40  32  73 NE6       30.11F
OSCEOLA        CLOUDY    41  32  70 N6        30.15F
$$

WIZ003>005-009-010-017-018-300900-
NORTH CENTRAL WISCONSIN

CITY           SKY/WX    TMP DP  RH WIND       PRES   REMARKS
MANITOWISH WTR CLOUDY    38  31  76 NE6       30.19R WCI  34
ARBOR VITAE    CLOUDY    37  30  75 NE3       30.18R
WOODRUFF       CLOUDY    37  30  75 NE3       30.18R
RHINELANDER    CLEAR     37  28  70 E5        30.17F WCI  33
EAGLE RIVER    CLOUDY    34  29  82 CALM      30.18S
LAND O LAKES   CLOUDY    37  30  74 NE5       30.20F WCI  34
PHILLIPS       CLOUDY    36  30  80 NE3       30.15F
TOMAHAWK       CLEAR     32  31  94 CALM      30.17F
MEDFORD        CLOUDY    35  32  90 NE5       30.13F WCI  31
MERRILL        CLOUDY    32  31  96 E5        30.15F WCI  27
$$

WIZ029-030-035-036-043>047-300900-
CENTRAL WISCONSIN

CITY           SKY/WX    TMP DP  RH WIND       PRES   REMARKS
WAUSAU         CLOUDY    42  30  62 NE7       30.13F
MOSINEE        CLOUDY    36  30  80 E8        30.14F WCI  29
MARSHFIELD     CLOUDY    40  33  76 E6        30.12F
STEVENS POINT  CLOUDY    35  31  85 NE3       30.14F
WAUPACA        PTCLDY    37  33  84 N3        30.14F
WAUTOMA        CLOUDY    35  32  88 CALM      30.14
WISC RAPIDS    CLOUDY    39  31  72 E6        30.14F WCI  35
CAMP DOUGLAS   CLOUDY    33  33 100 NE2       30.11F
$$

WIZ011>013-019>022-031-037>040-048>050-300900-
NORTHEAST WISCONSIN

CITY           SKY/WX    TMP DP  RH WIND       PRES   REMARKS
ANTIGO         CLOUDY    32  28  86 CALM      30.17F
SHAWANO        PTCLDY    41  33  72 NE7       30.16F
OCONTO         MOCLDY    39  35  86 NE5       30.17F
STURGEON BAY   CLOUDY    41  28  60 NE6       30.18F
GREEN BAY      PTCLDY    38  32  79 NE7       30.15F WCI  33
MANITOWOC      CLOUDY    38  30  73 N3        30.16S
APPLETON       PTCLDY    39  28  65 NE5       30.12F
CLINTONVILLE   CLOUDY    36  30  80 CALM      30.15F
OSHKOSH        PTCLDY    36  31  82 CALM      30.13F
$$

WIZ032>034-041-042-053>061-300900-
SOUTHWEST WISCONSIN

CITY           SKY/WX    TMP DP  RH WIND       PRES   REMARKS
LA CROSSE      CLOUDY    42  38  85 E5        30.10F
SPARTA         CLOUDY    33  33  99 CALM      30.11F
VIROQUA        CLOUDY    41  37  85 E10       30.08S
BOSCOBEL       PTCLDY    41  38  89 NE3       30.09F
PRAIRIE DU CHI CLOUDY    41  38  89 E3        30.05F
PLATTEVILLE    MOCLDY    41  39  93 NE10      30.04F
$$

WIZ056-057-062-063-064-067-068-300900-
SOUTH CENTRAL WISCONSIN

CITY           SKY/WX    TMP DP  RH WIND       PRES   REMARKS
REEDSBURG      MOCLDY    41  37  86 E5        30.10F
BARABOO/DELLS  CLOUDY    42  35  79 E6        30.10F
LONE ROCK      CLOUDY    42  38  85 E7        30.09F
MINERAL POINT  CLOUDY    43  37  81 E8        30.06F
MADISON        CLOUDY    42  36  79 E8        30.09F
MIDDLETON      CLOUDY    44  38  81 E3        30.09F
WATERTOWN      PTCLDY    39  32  75 NE5       30.09F
MONROE         CLOUDY    41  37  87 NE8       30.04F
JANESVILLE     CLOUDY    43  37  81 NE10      30.06F
$$

WIZ051-052-058>065-066-070>072-300900-
SOUTHEAST WISCONSIN

CITY           SKY/WX    TMP DP  RH WIND       PRES   REMARKS
MILWAUKEE      CLOUDY    42  34  73 NE8       30.12F
WAUKESHA       CLOUDY    37  30  75 NE7       30.12F WCI  32
MILWAUKEE/TIMM CLOUDY    37  30  75 NE3       30.13F
RACINE         CLOUDY    44  36  73 E9        30.12F
BURLINGTON     CLOUDY    42  33  72 NE8       30.08F
KENOSHA        CLOUDY    44  37  76 NE8       30.09F
FOND DU LAC    CLOUDY    35  30  82 CALM      30.13F
SHEBOYGAN      PTCLDY    34  30  85 NW3       30.14S
WEST BEND      CLOUDY    34  30  86 CALM      30.12F
JUNEAU         CLOUDY    39  29  67 NE5       30.12F
$$

LSZ147-162-300900-
LAKE SUPERIOR

STATION/POSITION TIME  TEMP    WIND        PRES    WAVE
                       AIR SEA DIR/SP/G            HT/PER
                 (UTC) (F)     (DEG/KT/KT) (MB)    (FT/S)
W MID LAKE BUOY  0750   38 36   40/ 10/ 12 1025.3R   1/ 2
DEVILS ISLAND    0800   40      70/ 17/ 19 1024.7S
SAXON HARBOR     0700   30     190/  3/  4 1023.7
$$

LMZ867-665-643>646-300900-
LAKE MICHIGAN

STATION/POSITION TIME  TEMP    WIND        PRES    WAVE
                       AIR SEA DIR/SP/G            HT/PER
                 (UTC) (F)     (DEG/KT/KT) (MB)    (FT/S)
CHAMBERS ISLAND  0700   41      10/  9/ 11 1022.0
N MID LAKE BUOY  0750   40 38   20/ 10/ 12 1022.4R   1
NORTHPORT PIER   0800   40     330/  1/  9 1022.4R
ALGOMA LAKESHORE 0715          330/  9/ 10   N/A
KEWAUNEE LAKESHO 0700   45      10/  8/ 12 1020.3S
SHEBOYGAN LAKESH 0800   43     320/  2/  3 1021.4F
PORT WASHINGTON  0700   40     300/  2/  3 1021.7R
S MID LAKE BUOY  0750   42 40   60/ 10/ 12 1019.5F   1
KENOSHA   LAKESH 0800   43      60/ 15/ 16 1018.6F
$$

TC  - TEMPERATURE IN CELSIUS
VSB - VISIBILITY IN STATUTE MILES
WCI - WIND CHILL INDEX
HX  - HEAT INDEX





USA.gov is the U.S. government's official web portal to all federal, state and local government web resources and services.